[[{"header":{"parameterUnit":"m.s-1","parameterCategory":1,"la1":30.2991,"la2":30.254,"lo1":-89.0895,"lo2":-89.0444,"dy":0.0017,"dx":0.0017,"nx":28,"ny":28,"refTime":"2025-11-30T03:00:00:Z","depth":0,"parameterNumber":2,"parameterNumberName":"U-component_of_WINDS"},"data":[0,0,0,0,0,0,0,0,0,0,0,0,0,0,0,0,0,0,0,0,0,0,0,0,0,0,0,0,0,0,0,0,0,0,0,0,0,0,0,0,0,0,0,0,0,0,0,0,0,0,0,0,0,0,0,0,0,0,-3.6035,-3.6036,0,-3.6137,-3.6138,-3.6139,-3.6084,-3.6081,-3.6078,-3.6075,-3.6181,-3.6187,-3.6192,0,0,0,0,0,0,0,0,0,0,0,0,0,-3.5791,-3.5796,-3.6034,-3.6036,-3.6037,-3.6137,-3.6138,-3.614,-3.6084,-3.6081,-3.6077,-3.6074,-3.618,-3.6186,-3.6193,0,0,0,0,0,0,0,0,0,0,0,0,0,-3.5895,-3.5797,-3.6034,-3.6021,-3.6021,-3.6137,-3.6138,-3.614,-3.6085,-3.6081,-3.6076,-3.6072,-3.6177,-3.6185,-3.6193,-3.6328,0,0,-3.6218,-3.6222,0,0,0,0,0,0,0,0,-3.589,-3.5904,-3.6022,-3.6022,-3.6022,-3.6093,-3.6091,-3.6203,-3.6086,-3.6061,-3.6075,-3.607,-3.6156,-3.6165,-3.6194,-3.6333,-3.6337,-3.6219,-3.6224,-3.6228,-3.623,0,0,0,0,0,0,0,-3.5882,-3.59,-3.6075,-3.6024,-3.6024,-3.601,-3.6021,-3.6112,-3.613,-3.6063,-3.6059,-3.6072,-3.6155,-3.6186,-3.6196,-3.6339,-3.6219,-3.6226,-3.6231,-3.6234,-3.6594,-3.6598,0,0,0,0,0,0,-3.5876,-3.5894,-3.6072,-3.6078,-3.5944,-3.6018,-3.603,-3.6075,-3.6129,-3.6134,-3.6075,-3.6069,-3.6174,-3.6186,-3.6199,-3.6361,-3.6227,-3.6235,-3.624,-3.6589,-3.6595,-3.66,0,0,0,0,0,0,-3.5871,-3.5892,-3.6068,-3.5985,-3.6006,-3.6027,-3.6078,-3.6079,-3.611,-3.6139,-3.6142,-3.6104,-3.6171,-3.6188,-3.6296,-3.6364,-3.6239,-3.6246,-3.6584,-3.6591,-3.6597,-3.6685,0,0,0,0,0,0,-3.5864,-3.5891,-3.5942,-3.5987,-3.6011,-3.6163,-3.6082,-3.6084,-3.6124,-3.6117,-3.6166,-3.617,-3.6169,-3.6284,-3.6304,-3.6373,-3.6253,-3.6578,-3.6587,-3.6595,-3.6677,-3.6695,-3.671,0,0,0,0,0,-3.5856,-3.5963,-3.5945,-3.5967,-3.6076,-3.6167,-3.6181,-3.6177,-3.613,-3.6182,-3.62,-3.6169,-3.6353,-3.6296,-3.6318,-3.639,-3.6574,-3.6584,-3.6595,-3.6669,-3.6691,-3.6709,0,0,0,0,0,0,-3.5926,-3.5969,-3.5949,-3.6074,-3.6117,-3.6158,-3.6223,-3.6201,-3.6259,-3.6249,-3.6242,-3.6254,-3.6367,-3.6389,-3.6325,-3.6523,-3.6456,-3.6471,-3.6505,-3.6526,-3.6542,-3.6536,-3.6259,0,0,0,0,0,-3.5956,-3.6027,-3.606,-3.6167,-3.619,-3.6203,-3.6243,-3.6236,-3.6281,-3.6299,-3.6325,-3.637,-3.6438,-3.6483,-3.6547,-3.6679,-3.6689,-3.6739,-3.6755,-3.6769,-3.6783,-3.6855,-3.6878,-3.6634,-3.6634,-3.6634,0,0,-3.6019,-3.6051,-3.6096,-3.6182,-3.6215,-3.6289,-3.6219,-3.63,-3.6354,-3.6311,-3.6416,-3.6436,-3.6486,-3.6607,-3.6661,-3.6629,-3.6852,-3.6782,-3.6793,-3.68,-3.6868,-3.6891,-3.6912,-3.6641,-3.664,-3.6639,0,0,-3.6172,-3.6203,-3.6296,-3.633,-3.638,-3.6388,-3.641,-3.6454,-3.6466,-3.657,-3.654,-3.6604,-3.6721,-3.6758,-3.6792,-3.6958,-3.6932,-3.6979,-3.7067,-3.7137,-3.7156,-3.7173,-3.7234,-3.7255,-3.6992,-3.6993,-3.6993,0,-3.6244,-3.6354,-3.6346,-3.643,-3.6469,-3.6432,-3.6526,-3.656,-3.6629,-3.6657,-3.6619,-3.6765,-3.6795,-3.6925,-3.6965,-3.6994,-3.7019,-3.6974,-3.7154,-3.7171,-3.7187,-3.7244,-3.7267,-3.6998,-3.6997,-3.6997,-3.6996,0,-3.6441,-3.6518,-3.6586,-3.6654,-3.67,-3.6789,-3.6795,-3.6842,-3.6831,-3.6843,-3.695,-3.6985,-3.7056,-3.7086,-3.7076,-3.7214,-3.7192,-3.7154,-3.7087,-3.7216,-3.727,-3.7292,-3.7006,-3.7004,-3.7002,-3.7001,0,0,-3.6643,-3.6704,-3.673,-3.676,-3.6813,-3.6872,-3.6958,-3.7027,-3.7069,-3.7117,-3.719,-3.7289,-3.7255,-3.7293,-3.7287,-3.7348,-3.7479,-3.7303,-3.7304,-3.7335,-3.7635,-3.7664,-3.769,-3.7461,-3.7465,-3.7468,-3.7631,0,-3.6801,-3.6952,-3.6948,-3.7089,-3.716,-3.7126,-3.7201,-3.7241,-3.7255,-3.7317,-3.7331,-3.7402,-3.735,-3.7373,-3.7432,-3.745,-3.7539,-3.7438,-3.753,-3.7533,-3.752,-3.7718,-3.7749,-3.7901,-3.7652,-3.7655,-3.7658,0,-3.7005,-3.706,-3.7209,-3.7251,-3.728,-3.7349,-3.7411,-3.7471,-3.7516,-3.7521,-3.7564,-3.7547,-3.7635,-3.7564,-3.7686,-3.7617,-3.7654,-3.7668,-3.7674,-3.7684,-3.7605,-3.7735,-3.7949,-3.7973,-3.7691,-3.7688,-3.7686,0,-3.714,-3.7251,-3.7354,-3.7381,-3.7432,-3.7481,-3.7504,-3.7545,-3.7587,-3.7641,-3.7668,-3.7732,-3.7768,-3.7818,-3.7819,-3.7767,-3.7943,-3.7871,-3.795,-3.7951,-3.7991,-3.7988,-3.8216,-3.8011,-3.8011,-3.8011,-3.801,0,-3.7317,-3.741,-3.7415,-3.7479,-3.7582,-3.7575,-3.7677,-3.7696,-3.7732,-3.7799,-3.7772,-3.7836,-3.7833,-3.7897,-3.7899,-3.8,-3.8016,-3.8023,-3.8022,-3.8026,-3.8026,-3.8052,-3.8042,-3.8017,-3.8015,-3.8014,-3.8013,0,-3.7486,-3.7493,-3.7604,-3.7643,-3.7654,-3.7729,-3.7762,-3.7823,-3.7833,-3.7918,-3.7937,-3.7954,-3.8028,-3.8033,-3.812,-3.812,-3.8243,-3.8231,-3.8229,-3.8227,-3.8306,-3.8299,-3.856,-3.8595,-3.8366,-3.8368,-3.837,0,-3.76,-3.767,-3.7717,-3.7759,-3.7786,-3.7855,-3.7897,-3.7893,-3.7938,-3.7994,-3.8048,-3.812,-3.8177,-3.8298,-3.8317,-3.8383,-3.8373,-3.8459,-3.8382,-3.8384,-3.8376,-3.8372,-3.838,-3.8475,-3.8478,-3.848,-3.8481,0,-3.7802,-3.7801,-3.7863,-3.7927,-3.7978,-3.8027,-3.8074,-3.811,-3.8111,-3.8163,-3.8239,-3.8283,-3.8371,-3.8443,-3.8507,-3.8531,-3.8507,-3.8505,-3.8527,-3.8533,-3.8529,-3.8534,-3.8271,-3.85,-3.8498,-3.8496,-3.8495,-3.8495,-3.7948,-3.8009,-3.8051,-3.8121,-3.8155,-3.8199,-3.8258,-3.8275,-3.8338,-3.8409,-3.8402,-3.8486,-3.8528,-3.8612,-3.8641,-3.8707,-3.8677,-3.8709,-3.8717,-3.8726,-3.8735,-3.8517,-3.8718,-3.8718,-3.8717,-3.8717,-3.8716,0,-3.8149,-3.8174,-3.8239,-3.8304,-3.8359,-3.833,-3.838,-3.8428,-3.8502,-3.8544,-3.86,-3.8687,-3.8757,-3.8781,-3.8848,-3.8896,-3.8887,-3.8915,-3.8912,-3.8918,-3.8757,-3.8731,-3.8921,-3.8921,-3.8921,-3.8921,-3.8921,-3.8921,-3.8261,-3.8363,-3.8368,-3.8487,-3.8511,-3.8593,-3.8624,-3.8664,-3.8698,-3.8796,-3.8853,-3.8868,-3.8903,-3.8973,-3.9035,-3.904,-3.9067,-3.91,-3.9101,-3.895,-3.8929,-3.891,-3.8886,-3.9105,-3.9105,-3.9257,-3.9258,-3.926]},{"header":{"parameterUnit":"m.s-1","parameterCategory":1,"la1":30.2991,"la2":30.254,"lo1":-89.0895,"lo2":-89.0444,"dy":0.0017,"dx":0.0017,"nx":28,"ny":28,"refTime":"2025-11-30T03:00:00:Z","depth":0,"parameterNumber":3,"parameterNumberName":"V-component_of_WINDS"},"data":[0,0,0,0,0,0,0,0,0,0,0,0,0,0,0,0,0,0,0,0,0,0,0,0,0,0,0,0,0,0,0,0,0,0,0,0,0,0,0,0,0,0,0,0,0,0,0,0,0,0,0,0,0,0,0,0,0,0,-5.9586,-5.9587,0,-5.96,-5.96,-5.96,-5.9515,-5.9513,-5.951,-5.9508,-5.9521,-5.9524,-5.9526,0,0,0,0,0,0,0,0,0,0,0,0,0,-5.9484,-5.9486,-5.9586,-5.9587,-5.9587,-5.96,-5.96,-5.96,-5.9515,-5.9513,-5.951,-5.9507,-5.952,-5.9523,-5.9527,0,0,0,0,0,0,0,0,0,0,0,0,0,-5.9516,-5.9487,-5.9586,-5.9546,-5.9542,-5.96,-5.96,-5.9601,-5.9516,-5.9512,-5.9509,-5.9505,-5.9519,-5.9523,-5.9527,-5.9624,0,0,-5.9539,-5.9541,0,0,0,0,0,0,0,0,-5.9514,-5.952,-5.9552,-5.9549,-5.9545,-5.9552,-5.9569,-5.9608,-5.9517,-5.9526,-5.9508,-5.9504,-5.9534,-5.9537,-5.9547,-5.9624,-5.9625,-5.9539,-5.9542,-5.9543,-5.9544,0,0,0,0,0,0,0,-5.9512,-5.9519,-5.9592,-5.9552,-5.9548,-5.9526,-5.9527,-5.9576,-5.955,-5.9525,-5.9519,-5.9522,-5.9532,-5.9544,-5.9547,-5.9625,-5.9539,-5.9543,-5.9545,-5.9547,-5.978,-5.9784,0,0,0,0,0,0,-5.9516,-5.9518,-5.9591,-5.9592,-5.952,-5.9531,-5.9532,-5.9554,-5.955,-5.9546,-5.9525,-5.9518,-5.9539,-5.9543,-5.9547,-5.9659,-5.9543,-5.9547,-5.9549,-5.9776,-5.9781,-5.9785,0,0,0,0,0,0,-5.9514,-5.9523,-5.9591,-5.9553,-5.956,-5.9537,-5.9562,-5.9556,-5.9568,-5.9549,-5.9544,-5.9542,-5.9536,-5.9542,-5.9605,-5.9658,-5.9549,-5.9552,-5.9772,-5.9778,-5.9783,-5.9884,0,0,0,0,0,0,-5.9511,-5.9523,-5.956,-5.9555,-5.9562,-5.9649,-5.9565,-5.9559,-5.9575,-5.9565,-5.9564,-5.956,-5.9534,-5.96,-5.9609,-5.9662,-5.9555,-5.9767,-5.9774,-5.9781,-5.9876,-5.9893,-5.9907,0,0,0,0,0,-5.9508,-5.9588,-5.9563,-5.9572,-5.9609,-5.9653,-5.9657,-5.9625,-5.9579,-5.9616,-5.9604,-5.956,-5.9651,-5.9607,-5.9617,-5.9671,-5.9763,-5.9772,-5.9781,-5.9869,-5.9889,-5.9907,0,0,0,0,0,0,-5.9601,-5.9587,-5.9558,-5.964,-5.9648,-5.9638,-5.9684,-5.9648,-5.9669,-5.966,-5.9619,-5.9619,-5.9689,-5.9686,-5.9637,-5.9764,-5.9699,-5.971,-5.9763,-5.9782,-5.9797,-5.9796,-5.9559,0,0,0,0,0,-5.9631,-5.9669,-5.9654,-5.9727,-5.9733,-5.9708,-5.9726,-5.97,-5.9707,-5.971,-5.9703,-5.9711,-5.974,-5.9761,-5.9788,-5.9875,-5.9873,-5.9917,-5.9933,-5.9946,-5.9956,-6.0,-6.0019,-5.9814,-5.9814,-5.9813,0,0,-5.9694,-5.969,-5.9717,-5.9746,-5.9749,-5.9788,-5.9711,-5.9756,-5.9784,-5.9717,-5.9776,-5.9771,-5.9777,-5.9852,-5.9885,-5.9852,-6.0012,-5.9957,-5.9967,-5.997,-6.0011,-6.003,-6.0048,-5.982,-5.9818,-5.9818,0,0,-5.9827,-5.9829,-5.9889,-5.9894,-5.99,-5.9882,-5.9897,-5.9892,-5.9886,-5.9945,-5.9895,-5.9927,-5.998,-5.9986,-5.9996,-6.0129,-6.009,-6.0139,-6.022,-6.0264,-6.028,-6.0294,-6.0341,-6.0358,-6.0149,-6.0149,-6.015,0,-5.9904,-5.9961,-5.9925,-5.9972,-5.9986,-5.9926,-5.9986,-5.9992,-6.0007,-6.0017,-5.998,-6.0044,-6.0044,-6.0119,-6.0152,-6.0162,-6.0177,-6.0139,-6.0281,-6.0295,-6.0307,-6.0351,-6.0369,-6.0155,-6.0155,-6.0154,-6.0154,0,-6.0054,-6.0094,-6.0142,-6.0157,-6.0175,-6.0229,-6.02,-6.0224,-6.0196,-6.0182,-6.0242,-6.0239,-6.0264,-6.028,-6.0254,-6.0351,-6.033,-6.0288,-6.0222,-6.0333,-6.0374,-6.039,-6.0164,-6.0162,-6.016,-6.0159,0,0,-6.0248,-6.0241,-6.0259,-6.0264,-6.0265,-6.0295,-6.0345,-6.0369,-6.0389,-6.0401,-6.0441,-6.0486,-6.0447,-6.0458,-6.0432,-6.047,-6.0574,-6.0423,-6.0422,-6.045,-6.068,-6.0711,-6.0732,-6.0548,-6.0551,-6.0554,-6.0679,0,-6.0377,-6.0462,-6.043,-6.0518,-6.0553,-6.0497,-6.054,-6.0545,-6.0533,-6.0561,-6.0547,-6.058,-6.0525,-6.0532,-6.0567,-6.0554,-6.062,-6.0545,-6.0584,-6.0586,-6.0584,-6.0753,-6.0787,-6.0905,-6.0695,-6.0697,-6.0699,0,-6.0539,-6.0557,-6.0648,-6.0641,-6.0655,-6.0695,-6.0713,-6.074,-6.0744,-6.0733,-6.0745,-6.071,-6.0757,-6.0692,-6.0756,-6.0706,-6.072,-6.0716,-6.072,-6.0722,-6.0649,-6.0759,-6.0942,-6.096,-6.0724,-6.0722,-6.072,0,-6.067,-6.0716,-6.0776,-6.0782,-6.0777,-6.0805,-6.0804,-6.0805,-6.082,-6.0836,-6.0845,-6.0867,-6.0879,-6.0896,-6.0867,-6.0822,-6.0935,-6.0867,-6.0926,-6.0927,-6.0952,-6.0951,-6.114,-6.0963,-6.0962,-6.0962,-6.0962,0,-6.0817,-6.0875,-6.0834,-6.0871,-6.0933,-6.0896,-6.0958,-6.095,-6.0951,-6.0985,-6.0937,-6.0969,-6.093,-6.0958,-6.0936,-6.0992,-6.0998,-6.0989,-6.0982,-6.0993,-6.0994,-6.1001,-6.0992,-6.0967,-6.0966,-6.0965,-6.0964,0,-6.0974,-6.0949,-6.101,-6.0999,-6.0998,-6.1044,-6.1034,-6.1067,-6.1051,-6.1094,-6.1102,-6.1077,-6.1108,-6.1081,-6.1111,-6.1096,-6.117,-6.1152,-6.1169,-6.1163,-6.1223,-6.1218,-6.1423,-6.1447,-6.1256,-6.1257,-6.1259,0,-6.107,-6.1112,-6.1105,-6.1124,-6.1126,-6.1157,-6.1172,-6.1136,-6.1154,-6.1161,-6.1193,-6.122,-6.1239,-6.1291,-6.1276,-6.1298,-6.1279,-6.135,-6.1282,-6.1291,-6.1279,-6.1277,-6.128,-6.1363,-6.1366,-6.1367,-6.1369,0,-6.1241,-6.1226,-6.125,-6.127,-6.1289,-6.1303,-6.1313,-6.1331,-6.1294,-6.1316,-6.1347,-6.1362,-6.1392,-6.1419,-6.1436,-6.1434,-6.1395,-6.139,-6.1405,-6.1416,-6.1423,-6.1419,-6.1205,-6.1386,-6.1384,-6.1383,-6.1382,-6.1381,-6.137,-6.1404,-6.1404,-6.1432,-6.1435,-6.1445,-6.1475,-6.1462,-6.1487,-6.1509,-6.1486,-6.1523,-6.1524,-6.1543,-6.1545,-6.1573,-6.1544,-6.1565,-6.157,-6.1576,-6.1584,-6.142,-6.1576,-6.1576,-6.1575,-6.1575,-6.1574,0,-6.1538,-6.1535,-6.1561,-6.1575,-6.1597,-6.1558,-6.1566,-6.1587,-6.162,-6.1624,-6.1644,-6.1679,-6.1704,-6.169,-6.1712,-6.1737,-6.172,-6.1744,-6.1741,-6.1741,-6.161,-6.1595,-6.1757,-6.1757,-6.1757,-6.1757,-6.1757,-6.1757,-6.1628,-6.1684,-6.1669,-6.1725,-6.1721,-6.1757,-6.1765,-6.1773,-6.1776,-6.1817,-6.1837,-6.1828,-6.1824,-6.1845,-6.1866,-6.1861,-6.1871,-6.1902,-6.1891,-6.1768,-6.175,-6.1733,-6.1719,-6.1904,-6.1905,-6.2019,-6.202,-6.2021]}]]